SCP
0 0 0 0 0 0 0 0 0 0 0 0 0 0 0 0 0 0 0 0 0 0 0 0 0 0 0 0 0 0 0 0 0 0 0 0 0 0 0 0 0 0 0
0 0 0 0 0 0 0 0 0 0 0 0 0 0 0 0 0 0 0 0 0 1 0 0 0 0 0 0 0 0 0 0 0 0 0 0 0 0 -0 -0 0 0 0
0 0 0 0 0 0 0 0 0 0 0 0 0 0 0 0 0 0 0 0 0 0 0 0 0 0 0 0 0 0 0 0 0 0 0 0 0 0 0 -0 -0 -0 0
0 0 0 0 0 0 0 0 0 0 0 0 0 0 0 0 0 0 0 0 0 0 0 0 0 0 0 0 0 -0 0 0 0 0 0 0 0 0 0 0 0 -0 0
0 0 0 0 0 0 0 0 0 0 0 0 0 0 0 0 0 0 0 0 0 0 0 0 0 0 0 0 0 0 -0 0 0 0 0 0 0 0 0 0 0 0 0
0 0 0 0 0 0 0 0 0 0 0 0 0 0 0 0 0 0 0 0 0 0 0 0 0 0 0 0 0 -0 0 0 0 0 0 0 0 0 0 -0 0 0 0
0 0 0 0 0 0 0 0 0 0 0 0 0 0 0 0 0 0 0 0 0 0 0 0 0 0 0 0 0 0 0 0 0 0 0 0 0 0 0 0 0 0 0
1 0 0 0 0 0 0 0 0 0 0 0 0 0 0 0 0 0 0 0 0 0 0 0 0 0 0 0 0 0 0 0 0 0 0 0 0 0 0 0 0 0 0
1 1 0 0 0 0 0 0 0 0 0 0 0 0 0 0 0 0 0 0 0 0 0 0 0 0 0 0 0 0 0 0 0 0 0 0 0 0 0 0 -0 0 0
2 2 1 1 1 1 1 0 0 0 0 0 0 0 0 0 0 0 0 0 0 0 0 0 0 0 0 -0 0 0 0 0 0 0 0 0 0 0 0 0 -0 0 0
2 2 1 1 1 1 1 0 0 0 0 0 0 0 0 0 0 0 0 0 0 0 0 0 0 0 0 0 0 0 0 0 0 0 0 0 0 0 0 0 -0 0 0
2 2 1 1 1 1 1 0 0 0 0 0 0 0 0 0 0 0 0 0 0 0 0 0 0 0 0 0 0 0 0 0 0 0 0 0 0 0 0 0 -0 -0 -0
2 2 2 1 1 1 1 0 0 0 0 0 0 0 0 0 0 0 0 0 0 0 0 0 0 0 0 0 0 0 0 0 0 0 0 0 0 0 0 0 0 -0 -0
2 2 2 2 1 1 0 0 0 0 0 0 0 0 0 0 0 0 0 0 0 0 0 0 0 0 0 0 0 0 0 0 0 0 0 0 0 0 0 0 0 0 -0
2 2 2 1 1 0 0 0 0 0 0 0 0 0 0 0 0 0 0 0 0 0 0 0 0 0 0 0 0 0 0 0 0 0 0 0 0 0 0 0 0 0 -0
2 2 1 1 0 0 0 0 0 0 0 0 0 0 0 0 0 0 0 0 0 0 0 0 0 0 0 0 0 0 0 0 0 0 0 0 0 0 0 0 0 0 0
1 1 1 0 0 0 0 0 0 0 0 0 0 0 0 0 0 0 0 0 0 0 0 0 0 0 0 0 0 0 0 0 0 0 0 0 0 -0 0 0 0 -0 0
1 1 1 0 0 0 0 0 0 0 0 0 0 0 0 0 0 0 0 0 0 0 0 0 0 0 0 0 0 0 0 0 0 0 0 0 0 0 0 0 0 0 0
1 1 1 0 0 0 0 0 0 0 0 0 0 0 0 0 0 0 0 0 0 0 0 0 0 0 0 0 0 0 0 0 0 0 0 0 0 0 0 0 0 0 0
1 1 0 0 0 0 0 0 0 0 0 0 0 0 0 0 0 0 0 0 0 0 0 0 0 0 0 0 0 0 0 0 0 0 0 0 0 0 0 0 0 0 0
1 0 0 0 0 0 0 0 0 0 0 0 0 0 0 0 0 0 0 0 0 0 0 0 0 0 0 0 0 0 0 0 0 0 0 0 0 0 0 0 0 0 0
0 0 0 0 0 0 0 0 0 0 0 0 0 0 0 0 0 0 0 -0 -0 0 0 0 0 0 0 0 0 0 0 0 0 0 0 0 0 0 0 0 0 0 0
0 0 0 0 0 0 0 0 0 0 0 0 0 0 0 0 0 0 -0 0 -0 0 0 0 0 0 0 0 0 0 0 0 0 0 0 0 0 0 0 0 0 0 0
0 0 0 0 0 0 0 0 0 0 0 0 0 0 0 0 0 0 0 0 0 0 0 0 0 0 0 0 0 0 0 0 0 0 0 0 0 0 0 0 0 0 0
0 0 0 0 0 0 0 0 0 0 0 0 0 0 0 0 0 0 0 0 0 0 0 0 0 0 0 0 0 0 0 0 0 0 0 0 0 0 0 0 0 0 0
0 0 0 0 0 0 0 0 0 0 0 0 0 0 0 0 0 0 0 0 0 0 0 0 0 0 0 0 0 0 0 0 0 0 0 0 0 0 0 0 0 0 -0
Wind_Speed_500mb
39 37 34 30 29 32 36 43 45 41 36 30 30 31 28 27 29 28 28 28 33 31 31 30 30 27 28 22 23 23 26 29 28 26 29 36 32 26 24 21 17 25 33
40 38 35 29 25 26 26 31 34 34 28 25 21 22 24 25 29 30 32 32 33 32 38 35 35 32 28 25 25 24 26 28 29 27 26 29 30 35 34 19 24 23 32
43 40 38 33 26 25 25 27 29 34 30 29 26 22 26 26 28 34 35 30 32 42 42 39 38 32 31 27 25 27 29 30 29 30 28 24 35 49 38 18 28 28 30
46 44 41 35 31 30 32 30 30 34 30 28 30 27 29 31 34 34 29 37 40 45 36 39 38 32 29 26 25 25 32 32 29 29 29 26 36 44 42 27 31 30 29
48 49 46 38 37 37 40 36 32 33 33 30 29 26 33 32 34 30 37 37 41 31 30 32 38 31 29 25 26 25 30 33 33 28 27 27 28 36 36 32 29 29 29
51 51 50 43 40 40 45 43 36 33 31 28 32 36 33 37 35 37 37 39 34 34 31 30 26 30 29 29 26 24 28 31 32 29 25 25 29 30 36 31 25 23 23
53 53 52 46 42 38 44 44 38 33 32 33 34 34 33 33 37 41 40 45 40 36 30 28 34 36 35 33 25 22 26 29 32 30 26 22 29 30 27 28 24 20 15
52 55 55 43 38 37 39 44 42 37 33 36 36 35 30 33 37 40 38 34 33 38 31 28 30 30 34 32 28 21 27 30 29 30 25 24 23 28 33 31 30 27 12
53 56 52 39 34 34 36 45 42 39 39 40 37 33 19 18 17 17 20 20 23 28 27 30 31 29 29 29 30 22 27 31 30 29 27 21 22 24 34 31 27 49 24
56 58 44 36 33 34 37 40 39 41 41 41 37 38 43 40 26 12 17 11 19 21 22 24 25 24 25 29 28 24 27 30 32 33 25 23 22 23 33 34 31 23 24
55 50 39 35 33 37 35 37 38 37 38 37 36 38 42 41 37 30 29 18 21 22 21 19 20 19 25 32 25 32 26 29 30 33 26 24 24 25 33 34 34 25 24
47 43 37 36 33 36 36 36 38 40 33 33 32 33 38 38 33 31 30 24 21 19 20 19 17 19 24 28 20 31 30 31 31 31 27 26 25 26 33 37 33 31 24
48 45 40 35 37 35 35 34 38 36 33 27 28 31 32 32 31 29 24 21 18 21 18 16 19 18 26 34 18 20 29 31 33 30 26 25 29 30 29 31 35 29 27
46 42 37 35 31 28 33 38 39 31 32 29 27 29 30 30 30 28 26 22 21 21 22 18 12 15 20 25 24 21 27 28 29 25 26 28 31 31 36 34 32 30 37
47 40 37 37 30 30 34 40 36 33 30 28 27 31 30 28 27 27 28 26 21 19 17 14 11 14 19 27 21 24 25 25 23 25 28 30 28 30 29 31 30 35 42
45 39 44 40 31 38 39 35 36 33 28 28 29 29 27 24 24 25 25 25 21 20 16 12 12 9 19 21 26 21 23 23 23 27 29 29 31 38 36 31 32 40 36
44 44 48 42 41 42 39 35 34 29 26 27 27 25 21 22 22 22 23 23 20 20 21 18 15 13 21 24 26 29 22 22 25 26 27 30 35 39 41 34 39 37 27
42 49 53 46 46 44 41 34 32 27 24 24 22 22 19 20 23 22 24 24 23 19 14 16 17 17 23 23 25 30 25 23 24 25 28 27 33 37 34 35 39 32 28
47 56 52 52 51 45 39 31 25 24 23 22 17 16 15 20 24 23 22 22 28 25 17 15 15 20 25 28 33 33 30 24 24 25 29 29 34 36 35 37 33 31 27
55 62 55 51 47 44 32 26 25 20 28 25 19 14 15 19 22 22 21 21 26 29 22 16 15 24 28 31 30 32 32 25 26 30 33 34 35 27 27 32 36 32 29
65 62 57 50 45 38 27 30 24 24 26 27 24 18 17 17 17 19 22 23 29 27 26 20 20 28 32 36 33 34 41 32 30 36 38 41 38 34 32 36 34 34 29
65 64 58 48 44 39 29 27 27 28 22 22 21 18 19 18 19 21 21 24 28 26 29 27 27 33 39 39 37 37 40 40 40 38 44 43 34 37 36 37 34 33 29
66 61 52 46 42 38 31 34 28 25 22 20 18 17 18 18 18 25 24 22 25 24 21 19 25 34 38 43 40 38 39 42 45 46 42 39 47 40 37 34 34 32 30
61 54 50 48 41 36 32 30 29 29 24 21 19 19 16 13 18 27 26 23 24 22 20 21 17 19 26 37 44 38 43 37 36 45 43 49 43 38 38 33 31 29 29
55 48 50 43 40 34 33 33 32 30 26 23 23 20 17 12 13 20 23 20 19 18 20 22 20 18 17 31 44 38 43 42 43 45 52 50 52 44 42 35 32 35 34
54 48 45 38 35 37 36 31 31 31 30 29 28 23 21 15 15 18 17 14 16 21 20 22 25 24 25 31 35 34 38 45 42 45 51 52 49 46 38 38 37 38 40
Wind_Direction_500mb
256 260 264 265 272 269 268 266 264 262 265 269 274 275 254 254 237 248 258 272 273 284 271 283 268 281 295 290 269 238 227 223 223 219 224 225 226 212 239 209 206 218 212
255 258 261 265 270 274 272 270 268 258 253 249 265 279 241 234 240 262 266 276 270 281 281 276 280 284 287 281 270 239 225 220 222 221 223 229 215 217 217 218 230 209 209
261 263 264 269 277 279 272 267 260 244 235 241 248 261 251 243 265 269 270 279 270 280 280 270 278 280 282 273 265 236 223 225 225 226 227 222 214 209 224 245 221 224 222
268 272 269 275 283 276 271 268 265 244 239 245 252 253 253 252 267 271 277 287 287 280 275 266 266 274 275 270 265 236 224 224 224 227 229 227 227 218 231 236 227 229 223
268 275 280 283 282 277 271 267 267 255 247 248 257 272 256 262 271 265 285 292 293 281 277 263 266 261 266 267 272 238 218 224 225 229 232 228 230 220 223 232 232 232 225
265 272 280 285 278 273 271 263 263 257 252 257 271 267 262 259 263 274 285 293 285 277 278 271 258 252 265 260 266 236 216 222 225 228 232 233 238 220 220 223 233 234 230
263 273 280 279 274 271 270 263 261 255 252 257 265 263 258 252 257 272 281 285 278 272 272 274 261 257 257 246 252 234 214 222 227 229 231 233 236 213 215 212 216 208 225
260 273 278 277 273 269 261 253 253 248 245 250 248 248 248 259 264 274 279 279 270 268 272 270 262 256 244 236 239 236 215 217 223 231 227 231 234 213 211 211 207 219 250
264 274 274 266 267 262 260 250 250 243 240 243 244 237 260 248 272 268 283 279 268 262 265 267 263 258 246 230 228 234 220 217 220 229 226 229 224 219 206 207 225 251 235
267 273 260 257 262 262 252 245 249 242 239 242 238 246 255 260 267 279 296 287 278 274 266 267 262 258 240 219 230 232 228 218 220 229 229 228 222 216 211 206 218 202 218
267 261 256 252 257 253 245 241 239 234 234 240 240 246 255 260 262 259 284 287 288 274 275 273 260 250 233 220 232 226 232 227 221 223 223 221 220 212 212 199 209 208 211
262 256 247 245 255 248 244 241 227 230 237 241 241 246 255 255 259 267 269 279 285 281 273 264 265 249 226 211 226 230 225 228 220 219 219 215 215 212 204 202 200 205 199
256 250 241 240 246 252 238 209 223 228 226 231 239 248 254 257 264 266 257 266 274 283 274 276 260 242 219 208 232 212 229 225 212 210 217 205 202 203 204 201 187 191 189
254 251 240 238 242 240 223 216 224 221 227 231 240 243 252 256 259 254 259 260 272 269 277 278 270 230 214 205 210 225 210 206 197 203 205 200 197 200 198 191 189 183 180
249 239 230 230 228 218 207 214 221 214 216 234 241 250 252 252 253 251 250 258 260 259 279 272 257 222 203 202 202 190 192 198 207 207 200 198 192 197 192 195 188 182 186
237 226 223 220 218 204 212 210 207 214 226 236 246 245 248 245 246 244 245 250 254 246 253 263 255 229 200 186 186 179 181 194 195 193 195 194 184 190 190 195 184 183 184
227 220 218 217 206 206 208 206 208 217 227 237 239 239 237 243 239 240 242 243 244 240 250 248 241 222 199 193 189 173 176 178 186 188 185 186 187 180 184 194 177 177 182
223 218 215 209 202 201 206 206 213 221 229 234 227 229 228 236 239 245 245 242 231 231 235 229 222 203 189 195 195 183 183 173 177 181 179 176 176 174 182 181 176 177 184
218 209 205 201 199 200 204 206 219 223 225 205 199 205 231 239 240 253 243 235 222 211 215 220 215 198 189 189 191 196 188 175 173 175 171 170 176 182 194 177 182 183 190
210 200 197 195 195 195 200 206 200 215 204 195 201 221 235 253 250 243 239 224 207 204 209 213 211 200 194 184 188 190 173 180 176 169 170 167 172 181 185 175 182 189 193
200 193 187 187 187 189 195 195 210 215 197 206 217 231 253 253 246 236 223 216 204 205 207 209 208 198 196 187 190 187 191 184 175 173 169 163 172 176 177 184 186 196 198
191 182 180 181 178 186 198 203 212 194 200 206 222 237 247 242 249 221 206 205 203 213 216 222 212 202 199 195 187 186 185 175 154 177 169 172 179 185 188 188 193 199 202
175 172 176 175 180 188 200 204 206 207 211 218 226 238 234 254 227 207 200 200 201 215 219 234 231 214 208 201 198 190 190 189 181 177 181 175 183 186 186 190 203 207 206
168 168 172 182 185 197 206 197 202 204 219 226 229 222 231 233 208 200 204 210 218 222 217 200 212 239 238 217 198 203 193 190 182 177 184 181 183 189 191 202 217 212 215
169 175 175 180 193 193 194 197 200 205 215 224 208 207 209 209 191 195 198 215 214 209 193 182 192 225 209 204 201 198 194 190 182 188 189 200 194 192 202 207 217 221 224
172 170 175 192 190 187 195 204 207 212 215 203 193 206 205 197 196 198 202 215 209 198 203 204 203 192 183 191 193 200 203 197 196 189 194 201 206 196 205 219 225 226 228
Wind_Speed_850mb
39 37 34 30 29 32 36 43 45 41 36 30 30 31 28 27 29 28 28 28 33 31 31 30 30 27 28 22 23 23 26 29 28 26 29 36 32 26 24 21 17 25 33
40 38 35 29 25 26 26 31 34 34 28 25 21 22 24 25 29 30 32 32 33 32 38 35 35 32 28 25 25 24 26 28 29 27 26 29 30 35 34 19 24 23 32
43 40 38 33 26 25 25 27 29 34 30 29 26 22 26 26 28 34 35 30 32 42 42 39 38 32 31 27 25 27 29 30 29 30 28 24 35 49 38 18 28 28 30
46 44 41 35 31 30 32 30 30 34 30 28 30 27 29 31 34 34 29 37 40 45 36 39 38 32 29 26 25 25 32 32 29 29 29 26 36 44 42 27 31 30 29
48 49 46 38 37 37 40 36 32 33 33 30 29 26 33 32 34 30 37 37 41 31 30 32 38 31 29 25 26 25 30 33 33 28 27 27 28 36 36 32 29 29 29
51 51 50 43 40 40 45 43 36 33 31 28 32 36 33 37 35 37 37 39 34 34 31 30 26 30 29 29 26 24 28 31 32 29 25 25 29 30 36 31 25 23 23
53 53 52 46 42 38 44 44 38 33 32 33 34 34 33 33 37 41 40 45 40 36 30 28 34 36 35 33 25 22 26 29 32 30 26 22 29 30 27 28 24 20 15
52 55 55 43 38 37 39 44 42 37 33 36 36 35 30 33 37 40 38 34 33 38 31 28 30 30 34 32 28 21 27 30 29 30 25 24 23 28 33 31 30 27 12
53 56 52 39 34 34 36 45 42 39 39 40 37 33 19 18 17 17 20 20 23 28 27 30 31 29 29 29 30 22 27 31 30 29 27 21 22 24 34 31 27 49 24
56 58 44 36 33 34 37 40 39 41 41 41 37 38 43 40 26 12 17 11 19 21 22 24 25 24 25 29 28 24 27 30 32 33 25 23 22 23 33 34 31 23 24
55 50 39 35 33 37 35 37 38 37 38 37 36 38 42 41 37 30 29 18 21 22 21 19 20 19 25 32 25 32 26 29 30 33 26 24 24 25 33 34 34 25 24
47 43 37 36 33 36 36 36 38 40 33 33 32 33 38 38 33 31 30 24 21 19 20 19 17 19 24 28 20 31 30 31 31 31 27 26 25 26 33 37 33 31 24
48 45 40 35 37 35 35 34 38 36 33 27 28 31 32 32 31 29 24 21 18 21 18 16 19 18 26 34 18 20 29 31 33 30 26 25 29 30 29 31 35 29 27
46 42 37 35 31 28 33 38 39 31 32 29 27 29 30 30 30 28 26 22 21 21 22 18 12 15 20 25 24 21 27 28 29 25 26 28 31 31 36 34 32 30 37
47 40 37 37 30 30 34 40 36 33 30 28 27 31 30 28 27 27 28 26 21 19 17 14 11 14 19 27 21 24 25 25 23 25 28 30 28 30 29 31 30 35 42
45 39 44 40 31 38 39 35 36 33 28 28 29 29 27 24 24 25 25 25 21 20 16 12 12 9 19 21 26 21 23 23 23 27 29 29 31 38 36 31 32 40 36
44 44 48 42 41 42 39 35 34 29 26 27 27 25 21 22 22 22 23 23 20 20 21 18 15 13 21 24 26 29 22 22 25 26 27 30 35 39 41 34 39 37 27
42 49 53 46 46 44 41 34 32 27 24 24 22 22 19 20 23 22 24 24 23 19 14 16 17 17 23 23 25 30 25 23 24 25 28 27 33 37 34 35 39 32 28
47 56 52 52 51 45 39 31 25 24 23 22 17 16 15 20 24 23 22 22 28 25 17 15 15 20 25 28 33 33 30 24 24 25 29 29 34 36 35 37 33 31 27
55 62 55 51 47 44 32 26 25 20 28 25 19 14 15 19 22 22 21 21 26 29 22 16 15 24 28 31 30 32 32 25 26 30 33 34 35 27 27 32 36 32 29
65 62 57 50 45 38 27 30 24 24 26 27 24 18 17 17 17 19 22 23 29 27 26 20 20 28 32 36 33 34 41 32 30 36 38 41 38 34 32 36 34 34 29
65 64 58 48 44 39 29 27 27 28 22 22 21 18 19 18 19 21 21 24 28 26 29 27 27 33 39 39 37 37 40 40 40 38 44 43 34 37 36 37 34 33 29
66 61 52 46 42 38 31 34 28 25 22 20 18 17 18 18 18 25 24 22 25 24 21 19 25 34 38 43 40 38 39 42 45 46 42 39 47 40 37 34 34 32 30
61 54 50 48 41 36 32 30 29 29 24 21 19 19 16 13 18 27 26 23 24 22 20 21 17 19 26 37 44 38 43 37 36 45 43 49 43 38 38 33 31 29 29
55 48 50 43 40 34 33 33 32 30 26 23 23 20 17 12 13 20 23 20 19 18 20 22 20 18 17 31 44 38 43 42 43 45 52 50 52 44 42 35 32 35 34
54 48 45 38 35 37 36 31 31 31 30 29 28 23 21 15 15 18 17 14 16 21 20 22 25 24 25 31 35 34 38 45 42 45 51 52 49 46 38 38 37 38 40
Wind_Direction_850mb
256 260 264 265 272 269 268 266 264 262 265 269 274 275 254 254 237 248 258 272 273 284 271 283 268 281 295 290 269 238 227 223 223 219 224 225 226 212 239 209 206 218 212
255 258 261 265 270 274 272 270 268 258 253 249 265 279 241 234 240 262 266 276 270 281 281 276 280 284 287 281 270 239 225 220 222 221 223 229 215 217 217 218 230 209 209
261 263 264 269 277 279 272 267 260 244 235 241 248 261 251 243 265 269 270 279 270 280 280 270 278 280 282 273 265 236 223 225 225 226 227 222 214 209 224 245 221 224 222
268 272 269 275 283 276 271 268 265 244 239 245 252 253 253 252 267 271 277 287 287 280 275 266 266 274 275 270 265 236 224 224 224 227 229 227 227 218 231 236 227 229 223
268 275 280 283 282 277 271 267 267 255 247 248 257 272 256 262 271 265 285 292 293 281 277 263 266 261 266 267 272 238 218 224 225 229 232 228 230 220 223 232 232 232 225
265 272 280 285 278 273 271 263 263 257 252 257 271 267 262 259 263 274 285 293 285 277 278 271 258 252 265 260 266 236 216 222 225 228 232 233 238 220 220 223 233 234 230
263 273 280 279 274 271 270 263 261 255 252 257 265 263 258 252 257 272 281 285 278 272 272 274 261 257 257 246 252 234 214 222 227 229 231 233 236 213 215 212 216 208 225
260 273 278 277 273 269 261 253 253 248 245 250 248 248 248 259 264 274 279 279 270 268 272 270 262 256 244 236 239 236 215 217 223 231 227 231 234 213 211 211 207 219 250
264 274 274 266 267 262 260 250 250 243 240 243 244 237 260 248 272 268 283 279 268 262 265 267 263 258 246 230 228 234 220 217 220 229 226 229 224 219 206 207 225 251 235
267 273 260 257 262 262 252 245 249 242 239 242 238 246 255 260 267 279 296 287 278 274 266 267 262 258 240 219 230 232 228 218 220 229 229 228 222 216 211 206 218 202 218
267 261 256 252 257 253 245 241 239 234 234 240 240 246 255 260 262 259 284 287 288 274 275 273 260 250 233 220 232 226 232 227 221 223 223 221 220 212 212 199 209 208 211
262 256 247 245 255 248 244 241 227 230 237 241 241 246 255 255 259 267 269 279 285 281 273 264 265 249 226 211 226 230 225 228 220 219 219 215 215 212 204 202 200 205 199
256 250 241 240 246 252 238 209 223 228 226 231 239 248 254 257 264 266 257 266 274 283 274 276 260 242 219 208 232 212 229 225 212 210 217 205 202 203 204 201 187 191 189
254 251 240 238 242 240 223 216 224 221 227 231 240 243 252 256 259 254 259 260 272 269 277 278 270 230 214 205 210 225 210 206 197 203 205 200 197 200 198 191 189 183 180
249 239 230 230 228 218 207 214 221 214 216 234 241 250 252 252 253 251 250 258 260 259 279 272 257 222 203 202 202 190 192 198 207 207 200 198 192 197 192 195 188 182 186
237 226 223 220 218 204 212 210 207 214 226 236 246 245 248 245 246 244 245 250 254 246 253 263 255 229 200 186 186 179 181 194 195 193 195 194 184 190 190 195 184 183 184
227 220 218 217 206 206 208 206 208 217 227 237 239 239 237 243 239 240 242 243 244 240 250 248 241 222 199 193 189 173 176 178 186 188 185 186 187 180 184 194 177 177 182
223 218 215 209 202 201 206 206 213 221 229 234 227 229 228 236 239 245 245 242 231 231 235 229 222 203 189 195 195 183 183 173 177 181 179 176 176 174 182 181 176 177 184
218 209 205 201 199 200 204 206 219 223 225 205 199 205 231 239 240 253 243 235 222 211 215 220 215 198 189 189 191 196 188 175 173 175 171 170 176 182 194 177 182 183 190
210 200 197 195 195 195 200 206 200 215 204 195 201 221 235 253 250 243 239 224 207 204 209 213 211 200 194 184 188 190 173 180 176 169 170 167 172 181 185 175 182 189 193
200 193 187 187 187 189 195 195 210 215 197 206 217 231 253 253 246 236 223 216 204 205 207 209 208 198 196 187 190 187 191 184 175 173 169 163 172 176 177 184 186 196 198
191 182 180 181 178 186 198 203 212 194 200 206 222 237 247 242 249 221 206 205 203 213 216 222 212 202 199 195 187 186 185 175 154 177 169 172 179 185 188 188 193 199 202
175 172 176 175 180 188 200 204 206 207 211 218 226 238 234 254 227 207 200 200 201 215 219 234 231 214 208 201 198 190 190 189 181 177 181 175 183 186 186 190 203 207 206
168 168 172 182 185 197 206 197 202 204 219 226 229 222 231 233 208 200 204 210 218 222 217 200 212 239 238 217 198 203 193 190 182 177 184 181 183 189 191 202 217 212 215
169 175 175 180 193 193 194 197 200 205 215 224 208 207 209 209 191 195 198 215 214 209 193 182 192 225 209 204 201 198 194 190 182 188 189 200 194 192 202 207 217 221 224
172 170 175 192 190 187 195 204 207 212 215 203 193 206 205 197 196 198 202 215 209 198 203 204 203 192 183 191 193 200 203 197 196 189 194 201 206 196 205 219 225 226 228